Regional Weather Roundup
Issued by NWS

Home | Current Version | Previous Version | Text Only | Print | Product List | Glossary On
Versions: 1 2 3 4 5 6 7 8 9 10 11 12 13 14 15 16 17 18 19 20 21 22 23 24 25 26 27 28 29 30 31 32 33 34 35 36 37 38 39 40 41 42 43 44 45 46 47 48 49 50
000
ASUS43 KDMX 280907
RWRIA

WEATHER ROUNDUP FOR IOWA
NATIONAL WEATHER SERVICE DES MOINES IA
300 AM CST FRI NOV 28 2014

NOTE: "FAIR" INDICATES FEW OR NO CLOUDS BELOW 12,000 FEET WITH NO
SIGNIFICANT WEATHER AND/OR OBSTRUCTIONS TO VISIBILITY.

* - THESE STATIONS ARE NOT NWS STATIONS...THUS NOT UNDER NWS
QUALITY CONTROL.  THEY ALSO DO NOT REPORT WEATHER SUCH
AS PRECIPITATION OR FOG.

IAZ001>003-012>014-020>022-031>034-043>046-281000-
   NORTHWEST IOWA

CITY           SKY/WX    TMP DP  RH WIND       PRES   REMARKS
CARROLL *      CLEAR     16  12  86 SE8       30.03F WCI   5
CHEROKEE *     PTCLDY    16  14  93 S7        29.99F WCI   6
DENISON *      CLEAR     27  21  80 S9G18     29.97F WCI  17
LE MARS *      CLEAR     19  16  86 S6        29.97F WCI  11
ORANGE CITY *  CLEAR     19  16  86 SE6       29.95F WCI  11
SHELDON *      CLEAR     14  10  85 SE13      29.95F WCI   0
SIOUX CITY     CLEAR     23  18  81 SE9       29.97F WCI  13
SPENCER        CLOUDY    14   9  80 SE18      30.00F WCI  -3
STORM LAKE *   CLEAR     12   9  85 SE15      30.00F WCI  -4
$$

IAZ055>058-069>071-079>083-090>094-281000-
   SOUTHWEST IOWA

CITY           SKY/WX    TMP DP  RH WIND       PRES   REMARKS
ATLANTIC *     CLEAR     27  21  80 S16G23    30.01F WCI  14
AUDUBON *      CLEAR     27  19  74 S14G22    30.01S WCI  15
CLARINDA *     CLEAR     28  23  80 S12       30.09F WCI  18
COUNCIL BLFS * CLEAR     27  25  93 S15       30.00F WCI  15
CRESTON *      CLEAR     23  21  93 S16G23    30.07F WCI  10
HARLAN  *      CLEAR     27  23  86 S13       30.04F WCI  16
LAMONI         PTCLDY    24  20  84 SE12G18   30.13F WCI  13
RED OAK *      CLEAR     27  23  86 S12       30.05F WCI  16
SHENANDOAH *   CLEAR     28  23  80 S10       30.06F WCI  19
$$

IAZ047>049-059>061-072>074-084-281000-
   CENTRAL IOWA

CITY           SKY/WX    TMP DP  RH WIND       PRES   REMARKS
AMES           PTCLDY    14   7  73 SE10      30.13F WCI   1
ANKENY *       CLEAR     16  10  79 SE9G16    30.12F WCI   4
CHARITON *     CLOUDY    21  16  79 S15G23    30.14F WCI   8
DES MOINES     PTCLDY    20  13  74 SE13      30.12F WCI   7
GRINNELL*      MOCLDY    16   9  73 SE18G24   30.15F WCI  -1
KNOXVILLE *    CLOUDY    18  10  73 SE14G22   30.12F WCI   4
MARSHALLTOWN   PTCLDY    14   5  67 SE16      30.15F WCI  -2
PELLA *        CLOUDY    18  10  73 SE13      30.17F WCI   4
PERRY *          N/A     16  12  86 SE10      30.08S WCI   3
$$

IAZ004>006-015-016-023>025-035-036-281000-
   NORTH CENTRAL IOWA

CITY           SKY/WX    TMP DP  RH WIND       PRES   REMARKS
ALGONA *       CLOUDY    16   9  73 SE17G24   30.05F WCI   0
CLARION *      MOCLDY    14   7  73 SE22G28   30.08F WCI  -4
ESTHERVILLE    CLOUDY    12   6  77 SE17      30.02F WCI  -5
FORT DODGE *   MOCLDY    16   7  67 SE9       30.07F WCI   4
MASON CITY     PTCLDY    11   3  70 SE15      30.12F WCI  -5
FOREST CITY *  MOCLDY    14   7  73 SE14      30.09F WCI  -1
IOWA FALLS *     N/A     14   5  67 SE14      30.13F WCI  -1
$$

IAZ007>011-017>019-026>030-037>042-050>054-066-281000-
   NORTHEAST IOWA

CITY           SKY/WX    TMP DP  RH WIND       PRES   REMARKS
CEDAR RAPIDS   CLOUDY    14   7  73 SE13      30.23F WCI   0
CHARLES CITY * CLOUDY    14   3  62 SE12G17   30.16F WCI   0
CLINTON *      MOCLDY    16   9  73 SE7       30.34F WCI   6
DECORAH *      MOCLDY    12   7  79 VRB7G14   30.20F WCI   2
DUBUQUE        CLOUDY    13   8  81 S12       30.27F WCI  -1
MONTICELLO *   CLOUDY    14   9  79 SE12      30.26F WCI   0
OELWEIN *      CLOUDY    14   7  73 SE14      30.22F WCI  -1
WATERLOO       MOCLDY    14   5  67 SE13      30.20F WCI   0
$$

IAZ064-065-067-068-078-281000-
   EAST CENTRAL IOWA

CITY           SKY/WX    TMP DP  RH WIND       PRES   REMARKS
DAVENPORT      CLOUDY    15   8  73 SE7       30.31F WCI   5
IOWA CITY      MOCLDY    14   8  77 SE10      30.29F WCI   1
MT. PLEASANT * PTCLDY    14   7  73 SE9       30.28F WCI   2
MUSCATINE *    CLOUDY    16   9  73 SE7       30.31F WCI   6
QUAD CITIES    CLOUDY    16   9  74 SE6       30.33F WCI   7
$$

IAZ062-063-075>077-085>089-095>099-281000-
   SOUTHEAST IOWA

CITY           SKY/WX    TMP DP  RH WIND       PRES   REMARKS
BURLINGTON     CLOUDY    16   7  67 SE8       30.31F WCI   5
FAIRFIELD *    MOCLDY    14   7  73 SE12      30.24F WCI   0
FORT MADISON * MOCLDY    19  10  68 SE8       30.29F WCI   9
KEOKUK *       PTCLDY    19  12  73 SE10      30.28F WCI   8
OSKALOOSA *    CLOUDY    16  10  79 SE15      30.20F WCI   1
CENTERVILLE *  CLEAR     19  16  86 SE10G16   30.20F WCI   8
OTTUMWA        MOCLDY    18   9  68 SE12      30.20F WCI   5
WASHINGTON *   CLOUDY    14  10  85 SE13      30.26F WCI   0
$$

ABBREVIATIONS USED IN REMARKS
   TC - TEMPERATURES IN CELSIUS
  WCI - WIND CHILL INDEX
   HX - HEAT INDEX
  VSB - VISIBILITY
$$




USA.gov is the U.S. government's official web portal to all federal, state and local government web resources and services.